VK3CSJ Weather Reports


Display with metric or nautical units.
time (UTC)temp
F
wind
direction
speed
MPH
gust
MPH
rain 1hr
in
rain 24hr
in
rain mn
in
humidity
%
barometer
mb
20260504033014 65 345 21.0 28.0 0.00 0.00 0.00 57 1010.5
20260504031505 64 5 19.0 31.0 0.00 0.00 0.00 59 1010.6
20260504030055 64 325 19.0 33.0 0.00 0.00 0.00 58 1011.0
20260504024558 64 350 17.0 31.0 0.00 0.00 0.00 60 1011.0
20260504023040 63 308 13.0 29.0 0.00 0.00 0.00 61 1011.1
20260504021522 63 323 9.0 25.0 0.00 0.00 0.00 65 1011.3
20260504020020 64 344 18.0 25.0 0.00 0.00 0.00 61 1011.4
20260504014506 64 336 11.0 27.0 0.00 0.00 0.00 64 1011.6
20260504013046 63 14 13.0 25.0 0.00 0.00 0.00 66 1011.6
20260504011532 63 332 13.0 28.0 0.00 0.00 0.00 66 1011.9
20260504010018 63 46 11.0 24.0 0.00 0.00 0.00 68 1012.1
20260504004509 62 42 8.0 25.0 0.00 0.00 0.00 68 1012.1
20260504003057 63 32 14.0 25.0 0.00 0.00 0.00 68 1012.1
20260504001516 62 351 14.0 23.0 0.00 0.00 0.00 69 1011.8
20260504000010 62 339 17.0 24.0 0.00 0.00 0.00 68 1012.0
20260503234600 62 23 7.0 18.0 0.00 0.00 0.00 69 1011.9
20260503233028 61 342 8.0 19.0 0.00 0.00 0.00 71 1012.1
20260503231508 61 15 6.0 17.0 0.00 0.00 0.00 71 1012.2
20260503230043 60 345 3.0 20.0 0.00 0.00 0.00 74 1012.2
20260503224511 59 355 7.0 18.0 0.00 0.00 0.00 74 1012.2
20260503223100 58 355 7.0 16.0 0.00 0.00 0.00 74 1012.4
20260503223001 58 360 8.0 16.0 0.00 0.00 0.00 75 1012.4
20260503221558 58 349 8.0 15.0 0.00 0.00 0.00 74 1012.3
20260503220046 58 355 9.0 15.0 0.00 0.00 0.00 74 1012.4
20260503214542 58 360 8.0 16.0 0.00 0.00 0.00 74 1012.3
20260503213023 57 360 10.0 17.0 0.00 0.00 0.00 74 1012.2
20260503211516 57 340 4.0 16.0 0.00 0.00 0.00 74 1012.2
20260503210006 57 347 3.0 15.0 0.00 0.00 0.00 75 1012.2
20260503204513 56 348 6.0 12.0 0.00 0.00 0.00 76 1012.1
20260503203019 56 13 4.0 10.0 0.00 0.00 0.00 76 1011.8
20260503201503 56 312 4.0 12.0 0.00 0.00 0.00 76 1011.9
20260503200055 56 327 4.0 11.0 0.00 0.00 0.00 76 1011.9
20260503194557 56 17 4.0 11.0 0.00 0.00 0.00 77 1011.9
20260503193040 56 9 7.0 13.0 0.00 0.00 0.00 77 1012.0
20260503191523 56 342 5.0 13.0 0.00 0.00 0.00 76 1012.3
20260503190018 56 5 3.0 9.0 0.00 0.00 0.00 76 1012.4
20260503184513 56 329 5.0 12.0 0.00 0.00 0.00 77 1012.6
20260503183005 56 17 5.0 12.0 0.00 0.00 0.00 78 1012.5
20260503181603 56 39 5.0 11.0 0.00 0.00 0.00 80 1012.5
20260503180045 56 15 6.0 13.0 0.00 0.00 0.00 81 1012.7
20260503174538 56 5 5.0 12.0 0.00 0.00 0.00 82 1012.8
20260503173036 56 342 6.0 14.0 0.00 0.00 0.00 82 1012.9
20260503171513 56 355 6.0 12.0 0.00 0.00 0.00 82 1012.9
20260503081547 59 297 2.0 4.0 0.00 0.00 0.00 86 1012.2
20260503071503 62 307 7.0 14.0 0.00 0.00 0.00 80 1011.7
20260503070103 63 308 7.0 14.0 0.00 0.00 0.00 81 1011.5
20260503054516 61 328 7.0 12.0 0.00 0.00 0.00 88 1011.6
20260503053006 61 303 10.0 19.0 0.00 0.00 0.00 89 1011.5
20260503051553 62 321 8.0 14.0 0.00 0.00 0.00 88 1011.6
20260503050049 65 277 8.0 13.0 0.00 0.00 0.00 87 1011.3
20260503044508 67 342 10.0 19.0 0.00 0.00 0.00 82 1011.0
20260503043006 68 333 11.0 19.0 0.00 0.00 0.00 80 1010.8
20260503041559 69 347 13.0 23.0 0.00 0.00 0.00 78 1010.7
20260503040104 68 44 12.0 23.0 0.00 0.00 0.00 77 1010.7
20260503034551 68 34 11.0 21.0 0.00 0.00 0.00 80 1010.7